User: anonymous   Login
Location: Unspecified
(0.0000°N, 0.0000°E)
Time: 09:34:03
(UTC+00:00)
Language:

Early Bird - Orbit

View from above orbital plane
View from above orbital plane
View from above satellite
View from above satellite

Ground track
Ground track

The orbit data is extracted from the following two-line orbital elements,

1  1317U 65028A   17295.46286123 +.00000123 +00000-0 +00000-0 0  9995
2  1317 000.5794 342.7152 0005033 208.2577 208.1653 01.00268589095496
Epoch (UTC): 22 October 2017 11:06:31
Eccentricity: 0.0005033
inclination: 0.5794°
perigee height: 35766 km
apogee height: 35808 km
right ascension of ascending node: 342.7152°
argument of perigee: 208.2577°
revolutions per day: 1.00268589
mean anomaly at epoch: 208.1653°
orbit number at epoch: 9549

The dashed part of the orbit path shows where the satellite is in the earth's shadow,  

DLR